Flag for U.S.A. Weather past 2 weeks in Cleveland, Tennessee, U.S.A.

Now
68 °F

Passing clouds.


Feels Like: 68 °F
Forecast: 62 / 81 °F
Wind: No wind

Location: Lovell Field

Current Time: Jul 31, 2014 at 12:23:22 AM

Latest Report: Jul 30, 2014 at 11:53 PM


Visibility: 10 mi

Pressure: 30.06 "Hg

Humidity: 76%

Dew point: 60 °F

Location of ClevelandLocation

Historic Weather in Cleveland — Graph

°F

Cleveland temperature yesterday

Maximum temperature yesterday: 81 °F (at 4:53 PM)
Minimum temperature yesterday: 59 °F (at 5:53 AM)
Average temperature yesterday: 71 °F

Past Weeks' High & Low Weather Summary

 TemperatureHumidityPressure
High93 °F (Jul 27, 3:53 PM)94% (Jul 21, 5:53 AM)30.15 "Hg (Jul 21, 5:53 AM)
Low59 °F (Jul 30, 5:53 AM)31% (Jul 25, 5:53 PM)29.86 "Hg (Jul 27, 5:53 PM)
Average76 °F68%30.01 "Hg
* Reported Jul 15 10:53 PM — Jul 30 10:53 PM, Cleveland, Weather by CustomWeather, © 2014

Note: Actual official high and low records may vary slightly from our data, if they occured in-between our weather recording intervals... More about our weather records

Advertising

Cleveland weather history for previous 24 hours

 ConditionsComfort  
Time TempWeatherWind HumidityBarometerVisibility
10:53 PM
Jul 30
70 °FPassing clouds.No wind68%30.07 "Hg10 mi
9:53 PM73 °FPartly cloudy.6 mph59%30.05 "Hg10 mi
8:53 PM74 °FBroken clouds.5 mph56%30.05 "Hg10 mi
7:53 PM78 °FBroken clouds.8 mph42%30.05 "Hg10 mi
6:53 PM80 °FBroken clouds.9 mph35%30.05 "Hg10 mi
5:53 PM81 °FBroken clouds.10 mph37%30.05 "Hg10 mi
4:53 PM81 °FBroken clouds.7 mph39%30.05 "Hg10 mi
3:53 PM80 °FBroken clouds.8 mph41%30.06 "Hg10 mi
2:53 PM79 °FBroken clouds.9 mph45%30.07 "Hg10 mi
1:53 PM78 °FBroken clouds.9 mph45%30.08 "Hg10 mi
12:53 PM77 °FBroken clouds.7 mph47%30.09 "Hg10 mi
11:53 AM75 °FBroken clouds.9 mph48%30.10 "Hg10 mi
10:53 AM73 °FBroken clouds.12 mph53%30.10 "Hg10 mi
9:53 AM69 °FBroken clouds.9 mph61%30.09 "Hg10 mi
8:53 AM67 °FBroken clouds.10 mph66%30.09 "Hg10 mi
7:53 AM62 °FScattered clouds.No wind80%30.09 "Hg10 mi
6:53 AM60 °FPassing clouds.No wind83%30.08 "Hg10 mi
5:53 AM59 °FClear.No wind84%30.06 "Hg10 mi
4:53 AM60 °FClear.No wind78%30.06 "Hg10 mi
3:53 AM62 °FClear.No wind75%30.06 "Hg10 mi
2:53 AM61 °FClear.3 mph78%30.06 "Hg10 mi
1:53 AM64 °FClear.No wind73%30.06 "Hg10 mi
12:53 AM64 °FClear.3 mph73%30.07 "Hg10 mi
Weather by CustomWeather, © 2014

See weather overviewHow to use our weather pages